Location: Fauquembergues
(50.6005°N, 2.0987°E)
Time: 10:34:28
(UTC+00:00)

Meteor 1-4 Rocket - Pass Details

Date: 14 July 2020
Orbit: 449 x 502 km, 81.2° (Epoch: 05 August)

Event Time Altitude Azimuth Distance (km) Brightness Sun altitude
Rises 00:14:11 0° 350° (N) 2,596 7.8 -17.7°
Reaches altitude 10° 00:16:21 10° 355° (N) 1,700 6.6 -17.6°
Maximum altitude 00:20:02 58° 75° (ENE) 577 3.0 -17.6°
Enters shadow 00:21:23 34° 139° (SE) 820 3.3 -17.6°
